RH
37 38 41 44 44 44 45 47 50 53 55 58 61 62 62 64 66 68 68 69 74 78 79 80 79 79 79 81 83 85 84 82 94 83 75 71 70 73 74 75 71 68 72
40 42 43 43 42 41 43 48 52 53 55 57 58 60 63 66 69 74 74 73 75 78 78 80 79 79 77 77 80 81 84 84 88 93 84 77 78 76 78 78 72 69 61
43 43 43 44 45 46 46 47 47 46 47 48 49 53 56 60 64 69 73 76 78 78 79 81 80 82 81 78 77 78 79 80 85 92 94 90 84 82 82 78 74 69 69
46 48 48 48 48 49 48 47 47 49 49 49 51 51 52 52 56 60 66 70 74 77 78 80 83 84 85 82 81 80 80 83 82 88 92 91 92 87 88 86 79 73 72
48 47 46 46 46 45 44 45 46 47 48 49 48 47 49 52 58 61 61 60 60 65 69 74 77 81 86 87 88 84 84 87 87 89 96 94 93 89 85 80 82 79 77
49 49 50 50 48 46 46 46 46 48 50 51 52 51 51 54 57 58 64 64 63 63 63 63 69 72 72 72 71 75 81 93 93 92 94 94 90 85 80 81 80 89 92
47 45 44 44 41 37 39 34 36 43 46 54 57 58 58 59 63 66 68 66 65 66 68 69 68 68 69 69 68 69 70 72 82 94 100 96 91 84 82 84 84 89 90
37 36 35 35 35 34 34 36 36 42 43 50 58 62 64 66 68 69 68 68 68 70 70 72 74 75 75 76 81 83 81 79 77 77 83 86 87 87 91 90 92 95 90
34 32 34 35 34 36 35 34 37 43 45 48 48 44 44 47 61 68 71 73 73 72 69 71 76 77 78 80 84 87 85 79 78 79 79 80 83 86 88 96 99 100 98
32 33 34 36 35 37 40 37 41 48 46 41 37 35 32 34 36 43 58 77 83 86 79 77 79 83 85 84 85 85 86 79 76 73 74 81 85 85 85 98 100 100 99
33 34 33 34 34 39 43 36 33 39 42 37 31 34 34 35 36 37 47 66 82 90 80 74 70 75 80 82 82 82 82 87 93 89 85 86 91 95 93 92 94 99 100
34 34 32 32 32 32 34 32 35 36 42 41 36 29 28 30 38 37 45 66 87 87 82 76 77 91 93 94 97 100 100 100 100 97 93 92 93 99 100 99 96 97 100
32 32 32 31 31 33 34 32 33 36 40 43 43 43 36 30 32 39 44 62 68 90 79 84 92 92 87 84 85 95 99 96 97 99 100 99 100 99 97 97 97 97 92
31 32 32 32 33 35 35 37 38 37 42 47 48 48 44 39 32 37 49 69 62 62 75 80 83 82 72 81 79 78 78 79 87 92 100 98 100 99 95 86 91 92 98
34 33 33 34 34 35 38 40 42 38 42 43 43 51 58 55 40 51 77 77 81 84 88 88 85 77 70 74 78 79 78 77 78 86 84 95 98 99 98 91 87 98 100
34 34 35 38 39 41 41 37 34 38 39 42 45 55 48 54 66 72 66 77 88 88 86 87 86 79 74 67 65 69 70 73 76 73 74 77 92 98 100 99 100 98 100
36 36 36 37 38 39 42 48 53 34 42 42 39 45 54 74 86 76 74 82 85 87 88 90 91 86 82 81 78 72 69 66 68 68 70 72 77 88 100 100 100 100 100
33 33 37 38 40 42 44 49 55 66 71 58 36 48 49 51 60 68 81 87 87 78 84 87 89 87 88 89 86 85 82 74 71 76 79 93 94 100 100 99 100 100 100
34 34 36 40 42 45 49 56 60 64 68 68 64 49 38 44 58 78 87 90 92 94 91 92 93 94 94 91 89 89 91 93 92 97 100 95 96 100 99 99 100 100 100
34 35 38 44 47 50 53 57 60 63 66 68 69 62 63 76 82 88 92 95 97 100 100 100 98 98 99 96 94 97 100 98 99 100 100 94 98 100 99 100 100 99 99
33 35 37 45 51 52 55 59 60 65 72 72 70 64 82 89 89 82 82 86 92 94 92 98 96 99 99 97 100 100 98 98 99 100 100 99 100 100 99 100 100 100 99
38 42 44 47 50 55 57 61 67 71 74 79 75 74 82 89 85 79 81 82 87 87 83 82 94 99 98 100 99 100 100 99 99 100 100 97 99 100 100 100 100 99 100
43 46 50 56 61 63 71 71 75 77 78 81 84 88 91 91 87 82 78 74 79 81 84 89 98 99 93 98 100 98 100 99 97 100 99 98 99 99 99 99 99 99 100
45 50 57 61 65 72 78 81 82 85 93 97 100 99 97 91 86 82 78 83 88 92 99 94 92 92 93 97 99 99 100 99 99 98 96 100 99 98 100 99 100 100 99
53 55 58 61 68 78 84 88 88 92 91 86 89 97 96 95 93 96 96 96 90 91 93 94 100 99 94 97 99 97 95 86 100 89 98 98 99 99 99 99 99 99 99
53 54 62 73 84 89 95 97 89 86 88 86 90 98 100 99 92 93 94 84 88 91 100 99 100 100 97 95 98 99 100 100 100 98 97 97 99 99 100 99 99 98 98
Wind_Speed
1 2 2 3 4 5 6 7 9 9 10 11 11 11 12 11 10 11 11 12 13 13 13 12 13 12 14 14 14 16 17 16 11 19 24 24 22 19 18 17 15 14 14
2 2 3 4 4 5 6 6 7 8 8 9 10 10 10 10 10 11 11 11 13 14 13 13 15 13 14 14 14 16 18 19 18 16 23 24 23 20 20 19 15 14 15
4 3 3 3 4 6 7 7 7 8 8 8 9 9 10 10 10 9 10 11 11 12 14 14 15 15 16 16 16 17 18 18 20 21 19 21 24 24 20 16 16 16 15
4 4 3 5 6 7 8 9 10 11 11 12 12 11 11 10 10 10 10 10 11 11 12 13 14 16 17 17 17 17 18 19 19 19 21 23 21 20 16 18 22 17 17
6 5 4 4 5 6 7 9 10 10 12 12 12 12 13 12 12 12 12 12 12 13 12 12 13 14 15 16 18 21 20 20 20 20 19 20 21 22 19 17 19 21 21
8 6 4 4 5 6 7 9 9 11 12 13 13 13 13 13 12 12 12 13 12 13 14 14 14 14 15 15 15 16 17 20 22 21 18 16 20 22 20 16 16 13 4
7 5 3 3 3 5 7 8 10 11 12 12 13 13 14 13 13 12 12 12 11 12 13 14 15 14 14 16 16 16 15 16 18 20 24 24 24 23 20 17 16 14 13
7 5 3 2 3 5 7 9 11 11 13 14 14 14 14 13 13 13 14 13 12 11 12 12 14 14 13 13 14 17 16 15 14 16 20 23 23 23 22 21 19 18 17
7 5 3 1 3 5 7 10 10 11 12 12 13 14 14 13 13 13 14 14 13 12 12 13 13 14 14 13 14 15 17 18 16 15 16 18 19 19 18 17 20 15 10
7 5 2 1 3 5 6 8 9 10 11 12 12 13 13 14 14 14 14 15 15 14 14 14 15 15 15 16 17 17 19 21 19 20 19 18 17 17 17 19 21 17 14
6 4 1 1 4 5 5 8 9 10 10 11 13 14 14 14 15 14 13 13 13 16 18 21 20 18 18 19 18 20 21 23 22 20 21 21 20 20 19 18 21 23 19
5 3 1 2 3 5 6 8 8 9 10 12 14 16 16 16 16 16 15 13 13 16 18 21 21 20 20 21 20 18 19 20 21 21 21 22 21 20 19 16 16 21 22
5 4 3 3 4 5 7 9 11 11 11 13 15 17 19 19 19 17 16 17 17 16 19 19 20 22 22 22 18 17 16 18 19 20 20 22 22 19 16 17 16 15 18
6 5 5 6 6 7 8 9 11 13 13 14 15 17 19 20 21 20 20 20 22 22 22 22 22 21 19 16 17 16 17 17 20 20 21 23 23 22 19 16 19 17 17
7 6 6 7 8 10 11 12 13 14 14 16 17 17 19 21 20 19 20 21 22 20 20 20 22 22 23 23 22 19 18 18 17 18 22 22 22 22 22 20 18 18 17
9 8 8 9 10 11 14 18 16 17 17 17 18 18 20 21 20 20 22 22 19 18 20 22 23 22 20 20 21 21 21 20 21 21 22 23 22 21 21 21 21 19 16
9 9 10 12 13 14 15 16 20 24 21 21 19 19 20 22 19 21 21 20 20 19 21 23 24 23 24 24 25 26 25 23 24 24 24 24 24 24 20 20 19 20 17
10 12 14 15 15 16 17 19 19 20 21 26 22 21 23 24 24 22 21 20 24 22 21 22 23 24 25 25 26 27 28 26 25 25 23 21 22 19 20 20 19 19 18
12 15 15 16 17 18 18 19 20 22 24 25 26 26 25 27 26 24 20 21 22 22 23 24 24 24 25 26 26 27 28 25 22 22 22 21 22 22 20 20 21 22 22
16 16 17 18 18 19 20 22 23 24 25 25 25 27 26 22 26 26 22 21 22 24 23 22 25 26 26 27 27 26 24 24 24 22 22 23 23 22 22 21 21 18 19
19 19 18 19 21 22 24 25 27 25 24 24 26 28 21 20 22 21 22 22 22 24 25 25 27 27 28 27 25 24 24 24 23 25 24 24 24 22 22 22 22 22 22
19 20 20 22 23 24 26 27 26 25 25 24 27 28 24 23 25 23 22 24 24 26 27 30 31 29 28 26 26 27 27 27 26 25 25 24 25 23 23 21 21 20 19
20 19 20 21 21 23 22 25 26 26 26 25 26 25 24 25 26 26 25 25 25 26 29 30 30 28 26 25 24 27 30 29 29 30 24 27 25 24 23 21 20 19 18
20 20 20 21 21 21 23 25 25 23 21 21 22 22 23 25 26 27 26 26 28 30 28 28 27 27 29 32 31 32 33 30 29 27 31 30 26 24 23 24 22 22 20
19 19 19 21 23 24 23 22 23 21 20 19 19 22 25 26 25 23 25 26 27 26 26 30 29 28 34 36 31 33 37 32 30 34 32 24 23 25 24 24 21 22 23
20 21 22 22 24 24 23 21 20 20 20 22 22 22 26 23 25 27 26 26 26 28 28 30 32 29 33 33 33 33 30 28 28 28 26 28 27 24 23 23 22 23 22
Wind_Direction
48 13 13 13 4 357 354 353 351 348 343 342 337 332 328 321 313 302 294 286 280 282 281 282 285 284 280 275 271 265 265 264 263 279 283 294 303 311 318 320 322 321 322
101 89 66 38 25 21 20 17 7 5 3 357 352 346 340 334 330 320 313 301 291 288 288 282 285 285 281 278 273 272 270 267 264 272 285 293 300 307 311 310 311 312 320
150 132 101 72 53 44 36 28 19 13 12 7 6 360 353 347 339 332 322 312 304 296 293 291 289 286 284 283 280 278 274 273 269 270 280 290 293 300 306 303 304 304 306
143 124 87 61 49 41 36 32 27 23 16 18 12 5 356 352 349 340 330 319 309 303 299 294 291 289 289 289 286 282 282 277 276 274 276 284 291 297 295 298 301 299 300
155 144 118 92 71 54 48 41 35 28 24 19 12 10 7 7 3 351 338 327 321 315 308 301 294 288 285 286 289 288 285 279 276 276 272 275 279 286 293 301 292 299 299
161 146 120 102 71 51 46 38 29 25 21 17 15 13 12 11 2 353 344 338 334 329 324 318 310 304 297 289 282 280 281 282 279 274 269 265 272 283 292 292 289 298 314
168 155 137 97 66 42 35 26 21 16 10 11 10 10 10 7 6 1 358 351 347 343 337 330 324 323 314 308 301 292 283 272 269 275 274 273 279 285 291 290 280 273 262
173 162 140 109 57 33 22 14 9 6 4 3 2 360 359 6 4 2 356 353 352 354 354 347 337 335 335 326 320 314 309 301 292 281 274 277 281 286 283 285 283 281 276
180 175 161 101 31 16 11 6 3 360 4 4 2 360 357 358 355 353 350 350 348 349 354 356 351 350 352 342 327 324 320 316 316 305 294 287 281 277 275 272 267 265 270
186 178 164 42 4 3 3 1 359 356 355 353 355 359 357 352 356 354 352 347 344 336 335 339 343 337 336 339 334 328 321 325 324 316 305 297 293 284 274 259 258 236 244
183 182 194 349 353 347 349 352 350 342 337 343 342 344 349 350 349 352 349 345 345 331 327 328 328 326 320 316 311 306 306 314 315 314 310 303 297 289 282 271 264 251 239
192 199 274 324 334 329 327 334 334 334 329 333 336 335 340 344 347 348 343 339 333 326 325 324 323 325 320 319 316 311 310 306 302 306 306 302 302 297 297 292 271 257 253
209 230 266 293 307 310 311 319 319 325 323 321 328 329 331 335 337 342 338 337 333 326 323 321 317 320 322 316 319 317 320 323 322 321 310 301 300 299 304 298 292 272 254
232 250 265 276 291 296 299 303 305 311 314 311 313 320 323 325 328 333 332 328 324 322 324 324 322 320 324 318 318 319 315 314 311 309 309 315 314 304 292 289 285 278 264
247 258 266 277 288 294 294 295 297 299 303 304 302 306 306 307 314 316 312 311 313 311 310 307 311 318 322 320 320 323 325 320 309 307 308 309 312 312 299 287 278 272 254
246 257 268 279 287 291 297 302 299 302 303 299 293 288 293 292 299 303 305 304 302 301 300 296 298 299 296 301 303 302 307 308 305 303 300 300 297 298 297 292 275 255 251
255 268 278 284 288 292 297 298 301 306 305 304 302 298 296 294 293 303 302 302 300 302 294 289 288 289 290 293 291 292 291 298 298 297 295 293 290 288 285 284 267 249 239
265 274 280 284 285 287 288 289 291 292 294 303 306 306 305 307 310 307 300 299 294 295 291 287 285 288 289 290 292 290 285 291 294 294 293 293 284 282 285 279 268 251 235
269 274 279 282 282 284 286 286 288 292 293 295 302 304 308 313 311 304 299 288 285 284 289 291 288 287 285 289 288 291 286 282 285 284 282 287 287 276 272 275 275 263 250
273 280 283 282 284 282 282 283 286 286 287 289 292 297 307 309 308 311 309 300 292 289 285 284 289 288 284 284 285 285 279 281 279 278 276 280 280 273 276 275 270 261 257
278 281 283 282 280 282 283 282 284 283 280 281 285 298 293 287 286 289 292 292 293 292 291 291 292 287 284 284 278 283 282 277 276 274 274 280 278 278 275 271 269 265 261
276 280 281 279 284 283 283 284 282 280 279 279 287 295 295 282 276 274 278 284 286 287 289 292 290 288 285 280 281 279 278 277 279 276 271 279 278 277 272 274 266 264 257
273 275 277 280 283 288 284 284 281 279 278 279 282 283 283 277 272 274 282 290 290 292 291 291 289 285 285 285 287 286 279 270 281 275 262 286 275 272 268 269 266 258 241
271 270 274 282 290 290 288 284 282 280 276 280 279 278 277 275 272 275 285 288 292 296 293 295 291 285 282 284 289 286 275 279 283 281 288 275 270 269 274 267 257 247 243
264 268 277 287 291 288 284 278 281 288 286 285 283 282 282 280 275 276 290 295 297 296 297 297 291 289 292 295 288 288 284 287 283 287 278 263 274 270 267 265 256 239 238
271 274 278 282 283 284 281 277 278 280 280 281 283 280 281 280 289 288 291 297 295 294 295 296 296 294 299 300 297 294 290 286 282 280 279 277 269 263 261 256 251 247 247